Regional Weather Roundup
Issued by NWS Sioux Falls, SD

Home | Current Version | Previous Version | Text Only | Print | Product List | Glossary Off
Versions: 1 2 3 4 5 6 7 8 9 10 11 12 13 14 15 16 17 18 19 20 21 22 23 24 25 26 27 28 29 30 31 32 33 34 35 36 37 38 39 40 41 42 43 44 45 46 47 48 49 50

279
ASUS43 KFSD 250810
RWRFSD

WEATHER ROUNDUP FOR SE SOUTH DAKOTA/SW MINNESOTA/NW IOWA
NATIONAL WEATHER SERVICE SIOUX FALLS SD
200 AM CST SAT FEB 25 2017

NOTE: "FAIR" INDICATES FEW OR NO CLOUDS BELOW 12,000 FEET WITH NO
SIGNIFICANT WEATHER AND OR OBSTRUCTIONS TO VISIBILITY.


SDZ038>040-050-052>070-250900-
SOUTHEAST SOUTH DAKOTA

CITY           SKY/WX    TMP DP  RH WIND       PRES   REMARKS
BROOKINGS      CLEAR     16  13  88 NW9       30.03F WCI   4
CHAMBERLAIN    CLOUDY    20  17  88 CALM      30.10F
HURON          CLEAR     16  13  88 NW5       30.10F WCI   9
MADISON        FAIR      16  16 100 NW10      30.04F WCI   3
MITCHELL       CLEAR     19  15  84 NW7       30.12F WCI  10
SIOUX FALLS    CLEAR     17  13  84 NW10      30.06S WCI   5
WINNER         CLOUDY    17  10  74 SW7       30.10F WCI   8
YANKTON        CLEAR     18  10  73 W14       30.11S WCI   4
$$

MNZ071-072-080-081-089-090-097-098-250900-
SOUTHWEST MINNESOTA

CITY           SKY/WX    TMP DP  RH WIND       PRES   REMARKS
FAIRMONT       CLEAR     16  11  80 NW15      29.95S WCI   1
JACKSON        PTCLDY    16  10  79 NW21G30   29.96S WCI  -2
LUVERNE        CLEAR     19  12  73 NW14G20   30.03S WCI   6
MARSHALL       CLEAR     17  10  74 NW18      30.03R WCI   1
MONTEVIDEO     CLEAR     18   9  68 N16G24    30.04S WCI   3
PIPESTONE      CLEAR     18  10  73 N18       30.01S WCI   2
REDWOOD FALLS  CLEAR     18   7  62 NW13G25   30.00R WCI   5
TRACY          CLEAR     18  11  74 NW21      30.01R WCI   2
WINDOM         CLEAR     16   9  73 NW20G30   29.97R WCI  -1
WORTHINGTON    CLEAR     15  10  80 NW21      29.99S WCI  -2
$$

IAZ001>003-012>014-020>022-031-032-NEZ013-014-SDZ071-250900-
NORTHWEST IOWA

CITY           SKY/WX    TMP DP  RH WIND       PRES   REMARKS
CHEROKEE       CLEAR     17  13  83 NW9G16    30.03S WCI   6
DENISON        CLOUDY    18  12  79 NW14G20   30.02R WCI   4
ESTHERVILLE    CLEAR     15  10  80 NW21      29.96R WCI  -2
LE MARS        CLEAR     16  12  86 NW8       30.08S WCI   5
SHELDON        CLEAR     16  16 100 NW14      30.01S WCI   1
SIOUX CITY     CLEAR     20  14  77 NW13      30.09R WCI   7
SPENCER        CLEAR     15   9  76 NW13      30.00R WCI   1
STORM LAKE     CLEAR     16  10  79 NW17      29.99S WCI   0
$$

ABBREVIATIONS USED IN REMARKS
   TC - TEMPERATURE IN CELSIUS
  WCI - WIND CHILL INDEX
   HX - HEAT INDEX
  VSB - VISIBILITY





USA.gov is the U.S. government's official web portal to all federal, state and local government web resources and services.